Regional Weather Roundup
Issued by NWS Newport/Morehead, NC

Current Version | Previous Version | Text Only | Print | Product List | Glossary Off
Versions: 1 2 3 4 5 6 7 8 9 10 11 12 13 14 15 16 17 18 19 20 21 22 23 24 25 26 27 28 29 30 31 32 33 34 35 36 37 38 39 40 41 42 43 44 45 46 47 48 49 50
000 ASUS42 KMHX 030325 RWRMHX WEATHER ROUNDUP FOR EASTERN NORTH CAROLINA NATIONAL WEATHER SERVICE NEWPORT/MOREHEAD CITY NC 1000 PM EST FRI DEC 02 2016 NOTE: "FAIR" INDICATES FEW OR NO CLOUDS BELOW 12,000 FEET WITH NO SIGNIFICANT WEATHER AND/OR OBSTRUCTIONS TO VISIBILITY NCZ015>017-031-032-045>047-102-103-030400- NORTH COAST CITY SKY/WX TMP DP RH WIND PRES REMARKS EDENTON CLEAR 47 37 66 CALM 30.14R ELIZABETH CITY CLEAR 43 34 70 W7 30.12R KITTY HAWK CLEAR 51 41 68 W9G16 30.10S MANTEO CLEAR 47 40 75 NW3 30.12R $$ NCZ045>047-081-094-103-104-030400- CENTRAL COAST CITY SKY/WX TMP DP RH WIND PRES REMARKS FRISCO CLEAR 53 37 54 NW9G17 30.11S $$ NCZ095-097-098-100-101-030400- SOUTHERN COAST CITY SKY/WX TMP DP RH WIND PRES REMARKS BEAUFORT CLEAR 49 37 63 W13 30.15R CEDAR ISLAND NOT AVBL JACKSONVILLE CLEAR 42 37 82 W6 30.16R PINEY ISLAND CLEAR N/A N/A N/A W7 30.14R WILMINGTON PTCLDY 45 37 73 W7 30.19R $$ NCZ011>013-027>030-043-044-078>080-089-090>093-098-030400- COASTAL PLAIN CITY SKY/WX TMP DP RH WIND PRES REMARKS AHOSKIE CLEAR 43 32 65 CALM 30.16R CLINTON CLEAR 40 37 89 CALM 30.19R ELIZABETHTOWN CLEAR 45 36 71 CALM 30.19R GOLDSBORO CLEAR 42 36 79 CALM 30.14R GREENVILLE CLEAR 37 36 93 CALM 30.16R HAVELOCK CLEAR 42 35 76 W5 30.16R KENANSVILLE CLEAR 37 36 93 SW5 30.18R KINSTON CLEAR 36 34 93 SW3 30.16R NEW BERN CLEAR 41 35 79 CALM 30.16R RICHLANDS CLEAR 35 34 96 SW5 30.17R ROCKY MOUNT CLEAR 42 34 73 NW6 30.16R WASHINGTON CLEAR 38 35 88 CALM 30.15R WHITEVILLE CLEAR 44 37 76 CALM 30.19R $$ AMZ130-135-150-152-154-156-158-170-250-252-270-ANZ085-086-088-633-658-670-030400- MARINE OBSERVATIONS STATION/POSITION TIME TEMP WIND PRES WAVE SWELL AIR SEA DIR/SP/G HT/PER HT/PER (UTC) (F) (DEG/KT/KT) (MB) (FT/S) (FT/S) CHESAPEAKE LIGHT NOT AVBL 64 E VA BEACH 0250 55 60 290/ 19/ 23 1017.9 4/ 5 2/ 9 DUCK 0300 51 57 280/ 11/ 13 1019.2 2 E DUCK NOT AVBL OREGON INLET 0300 50 58 280/ 7/ 10 1019.6 13E OREGON INLT 0300 61 N/A 3/ 6 2/ 6 HATTERAS CG 0300 54 62 300/ 16/ 18 1019.5 DIAMOND BUOY 0250 58 75 310/ 19/ 23 1019.5 4/ 8 2/ 8 CAPE LOOKOUT 0300 55 290/ 14/ 17 1020.5 BEAUFORT LAB 0300 51 58 290/ 6/ 12 1019.9 30 SE NEW RVR IN 0308 59 71 310/ 16/ 21 1021.2 30 SE NEW RVR IN NOT AVBL 27 SE WRIGHTSVLE 0308 58 69 290/ 16/ 23 1021.1 5 SE WRIGHTSVLE 0308 52 64 290/ 12/ 19 1021.3 225 S CAPE HAT 0250 68 74 340/ 14/ 17 1018.7 4/ 6 2/ 9 41 SE CHARLESTON 0250 61 75 320/ 12/ 16 1022.4 3/ 9 2/ 9 $$

USA.gov is the U.S. government's official web portal to all federal, state and local government web resources and services.